Regional Weather Roundup
Issued by NWS Charleston, SC

Current Version | Previous Version | Text Only | Print | Product List | Glossary Off
Versions: 1 2 3 4 5 6 7 8 9 10 11 12 13 14 15 16 17 18 19 20 21 22 23 24 25 26 27 28 29 30 31 32 33 34 35 36 37 38 39 40 41 42 43 44 45 46 47 48 49 50
000 ASUS42 KCHS 031027 RWRCHS REGIONAL WEATHER ROUNDUP NATIONAL WEATHER SERVICE CHARLESTON SC 600 AM EDT WED JUN 03 2015 NOTE: "FAIR" INDICATES FEW OR NO CLOUDS BELOW 12,000 FEET WITH NO SIGNIFICANT WEATHER AND/OR OBSTRUCTIONS TO VISIBILITY. NOT ALL STATIONS ARE QUALITY CONTROLLED BY THE NATIONAL WEATHER SERVICE. USE DATA WITH CAUTION...ESPECIALLY DEWPOINT OBSERVATIONS. SCZ027-030-031-034>040-042>050-031100- ...SOUTHEAST SOUTH CAROLINA... CITY SKY/WX TMP DP RH WIND PRES REMARKS N CHARLESTON TSTM 70 66 88 SE9 29.97R WATERFRONT PAR N/A 71 69 93 SE7 29.94S MOUNT PLEASANT RAIN 70 68 94 NE3 29.96F JOHNS ISLAND LGT RAIN 70 70 100 NE5 29.96S PINOPOLIS NOT AVBL MONCKS CORNER CLOUDY 70 66 88 SE5 29.96S SUMMERVILLE LGT RAIN 68 68 100 CALM 29.96F BEAUFORT MCAS CLOUDY 71 69 93 W3 29.95R THUNDER BEAUFORT ARPT PTSUNNY 72 70 94 CALM 29.94S HILTON HEAD IS NOT AVBL WALTERBORO CLOUDY 68 66 94 CALM 29.96S ALLENDALE RAIN 68 66 94 N3 29.96F ...SOUTHERN MIDLANDS AND PEE DEE... CITY SKY/WX TMP DP RH WIND PRES REMARKS GEORGETOWN NOT AVBL KINGSTREE NOT AVBL ORANGEBURG LGT RAIN 68 65 90 NE3 29.97S BARNWELL PTSUNNY 66 66 100 E6 29.97S AIKEN FAIR 63 61 94 SE6 29.98S MANNING CLOUDY 64 63 94 N3 29.97F COLUMBIA CLOUDY 68 63 84 E8 29.93F SUMTER CLOUDY 65 62 91 N2 29.97R FLORENCE CLOUDY 67 65 93 NE6 29.99R MYRTLE BEACH RAIN 70 64 83 CALM 30.01F FOG N MYRTLE BEACH LGT RAIN 68 66 93 S3 30.01R $$ GAZ063-065-086>088-099>101-113>116-118-119-134>141-150-031100- ...SOUTHEAST GEORGIA... CITY SKY/WX TMP DP RH WIND PRES REMARKS SAVANNAH ARPT LGT RAIN 70 67 90 CALM 29.95R HUNTER AAF CLOUDY 70 70 100 CALM 29.93R FORT STEWART CLOUDY 70 68 94 CALM 29.92S STATESBORO CLOUDY 68 32 26 N8 29.95S SYLVANIA CLOUDY 69 68 97 NE8 29.97R CLAXTON PTSUNNY 68 68 100 CALM 29.95R ...CSRA...CENTRAL AND FAR SOUTHEAST GEORGIA... CITY SKY/WX TMP DP RH WIND PRES REMARKS THOMSON PTCLDY 66 66 100 CALM 29.99S AUGUSTA-BUSH CLOUDY 65 63 93 S5 29.94F AUGUSTA-DANIEL CLOUDY 66 63 90 CALM 29.95F SWAINSBORO CLOUDY N/A N/A N/A NE3 29.98R VIDALIA MOCLDY 68 68 100 CALM 29.96R EASTMAN FAIR 65 65 100 CALM 29.98R FOG HAZLEHURST CLOUDY 71 71 100 CALM 29.94S FOG ALMA MOCLDY 69 67 93 CALM 29.94S WAYCROSS LGT RAIN 70 69 99 SW5 29.95S JESUP PTSUNNY 70 70 100 CALM 29.95S BAXLEY FAIR 70 68 94 SW3 29.94S BRUNSWICK CLOUDY 70 68 94 CALM 29.96S SAINT SIMONS NOT AVBL $$ SCZ027-028-034-036>038-045-046-048>050-GAZ119-141-031100- ...LAKE AND SUPPLEMENTAL COASTAL OBSERVATIONS... STATION/POSITION TIME TEMP WIND PRES WAVE SWELL AIR SEA DIR/SP/G HT/PER HT/PER/DIR (UTC) (F) (DEG/KT/KT) (MB) (FT/S) (FT/S/D) UPR LAKE MARION NOT AVBL WINYAH BAY 0945 68 40/ 3 1015.0R LAKE MURRAY 1000 68 50/ 4/ 9 1012.9F ACE BASIN NERRS NOT AVBL FORT PULASKI 1000 73 81 200/ 4/ 5 1014.7R SAPELO ISLAND 1000 72 220/ 6 1014.0S $$ ANZ835-935-AMZ111-154-330-350-352-354-370-450-454-472-031100- ...C-MAN AND BUOY OBSERVATIONS... STATION/POSITION TIME TEMP WIND PRES WAVE SWELL AIR SEA DIR/SP/G HT/PER HT/PER/DIR (UTC) (F) (DEG/KT/KT) (MB) (FT/S) (FT/S/D) BUOY 41004 0950 73 80 330/ 8/ 10 1014.8R 2/ 8 2/ 8 BUOY 41008 0950 77 79 260/ 8/ 10 1014.3R 2/ 8 2/110/ 8 FOLLY BEACH CMAN 1000 73 120/ 4/ 5 1014.4F CAPERS NEARSHORE 0908 71 330/ 8/ 10 1015.1R FRIPP NEARSHORE 0900 76 260/ 12/ 14 1013.7S STATION/POSITION TIME TEMP WIND PRES WAVE SWELL AIR SEA DIR/SP/G HT/PER HT/PER/DIR (UTC) (F) (DEG/KT/KT) (MB) (FT/S) (FT/S/D) 5E ST. MARYS GA 0921 80 N/A 2/ 8 FRYING PAN BUOY 0950 73 76 130/ 4/ 8 1015.1S 3/ 8 2/ 90/ 8 BUOY 41025 0950 75 81 190/ 6/ 6 1015.4S 2/ 8 2/110/ 8 CAPE LOOKOUT NC 1000 74 120/ 13/ 14 1015.0R BUOY 41002 0950 77 76 160/ 8/ 8 1015.9R 3/ 8 3/110/ 8 BUOY 41010 0920 79 80 140/ 2/ 4 1014.0F ST AUGUSTINE FL 1000 70 75 360/ 2/ 2 1014.9F $$

USA.gov is the U.S. government's official web portal to all federal, state and local government web resources and services.